This is the latest recevied weather packets stored in our database for station/object KD2SIG. If no packets are shown the sender has not sent any weather packets the latest 10 day(s).
| Time | Temp. | Humidity | Pressure | Rain* | Wind** | Luminosity | Snow |
|---|---|---|---|---|---|---|---|
| 1777480618 | 15.56° C | 75% | 1011.4 hPa | 0 mm | - | 63 W/m² | - |
| 1777480316 | 15.56° C | 75% | 1011 hPa | 0 mm | - | 86 W/m² | - |
| 1777480011 | 15.56° C | 75% | 1011.2 hPa | 0 mm | - | 88 W/m² | - |
| 1777479708 | 15.56° C | 75% | 1011.3 hPa | 0 mm | - | 105 W/m² | - |
| 1777479407 | 15.56° C | 75% | 1011.3 hPa | 0 mm | - | 83 W/m² | - |
| 1777479102 | 15° C | 75% | 1011.2 hPa | 0 mm | - | 78 W/m² | - |
| 1777478799 | 15.56° C | 74% | 1011.1 hPa | 0 mm | - | 84 W/m² | - |
| 1777478496 | 15.56° C | 74% | 1011.1 hPa | 0 mm | - | 118 W/m² | - |
| 1777478193 | 15.56° C | 74% | 1011.1 hPa | 0 mm | - | 161 W/m² | - |
| 1777477889 | 15.56° C | 75% | 1011.3 hPa | 0 mm | - | 196 W/m² | - |
| 1777477585 | 15° C | 76% | 1011.5 hPa | 0 mm | - | 140 W/m² | - |
| 1777477281 | 15° C | 75% | 1011.4 hPa | 0 mm | - | 120 W/m² | - |
| 1777476978 | 15.56° C | 75% | 1011.6 hPa | 0 mm | - | 88 W/m² | - |
| 1777476676 | 15.56° C | 74% | 1011.7 hPa | 0 mm | - | 85 W/m² | - |
| 1777476372 | 15.56° C | 73% | 1011.7 hPa | 0 mm | - | 119 W/m² | - |
| 1777476068 | 15.56° C | 74% | 1011.6 hPa | 0 mm | - | 195 W/m² | - |
| 1777475757 | 15.56° C | 74% | 1011.4 hPa | 0 mm | - | 280 W/m² | - |
| 1777475455 | 15.56° C | 75% | 1011.7 hPa | 0 mm | - | 118 W/m² | - |
| 1777475149 | 15° C | 75% | 1011.9 hPa | 0 mm | - | 161 W/m² | - |
| 1777474847 | 15° C | 75% | 1011.9 hPa | 0 mm | - | 140 W/m² | - |
| 1777474542 | 15° C | 76% | 1012 hPa | 0 mm | - | 105 W/m² | - |
| 1777474239 | 15° C | 75% | 1012.1 hPa | 0 mm | - | 147 W/m² | - |
| 1777473937 | 15.56° C | 75% | 1012.4 hPa | 0 mm | - | 117 W/m² | - |
| 1777473634 | 15.56° C | 75% | 1012.1 hPa | 0 mm | - | 126 W/m² | - |
| 1777473330 | 15° C | 75% | 1012.2 hPa | 0 mm | - | 175 W/m² | - |
* Rain latest hour (hover to see other rain measurements)
** Current wind speed in m/s (hover to see current wind gust speed)